Regional Weather Roundup
Issued by NWS

Home | Current Version | Previous Version | Text Only | Print | Product List | Glossary Off
Versions: 1 2 3 4 5 6 7 8 9 10 11 12 13 14 15 16 17 18 19 20 21 22 23 24 25 26 27 28 29 30 31 32 33 34 35 36 37 38 39 40 41 42 43 44 45 46 47 48 49 50

327
ASUS44 KMEG 201810
RWRTN
TENNESSEE HOURLY STATE WEATHER ROUNDUP
NATIONAL WEATHER SERVICE MEMPHIS TN
100 PM CDT FRI OCT 20 2017

TNZ002-004-019-021-049-052-054-088>092-201900-
WEST TENNESSEE

CITY           SKY/WX    TMP DP  RH WIND       PRES   REMARKS
MEMPHIS INTL   CLOUDY    74  55  51 SE9       30.19F
NWS MEMPHIS      N/A     73 N/A N/A MISG        N/A
JACKSON        SUNNY     74  52  46 VRB5      30.21F
SOMERVILLE     SUNNY     75  54  46 SE7       30.20F
COVINGTON      SUNNY     75  54  46 S8        30.20F
UNION CITY     SUNNY     73  54  49 VRB7      30.20F
BOLIVAR        SUNNY     73  54  49 VRB6G13   30.21F
PARIS          SUNNY     72  52  49 CALM      30.21F
HUNTINGDON     SUNNY     73  52  46 VRB5      30.21F
LEXINGTON      SUNNY     73  52  46 CALM      30.22F
SELMER         SUNNY     73  52  46 SE6       30.21F
SAVANNAH       SUNNY     75  48  38 VRB3      30.21F
$$

TNZ008-025-027-028-033-062-065-066-201900-
NORTH MIDDLE TENNESSEE

CITY           SKY/WX    TMP DP  RH WIND       PRES   REMARKS
NASHVILLE      PTSUNNY   75  47  36 E7        30.25F
CLARKSVILLE    SUNNY     72  49  44 VRB7      30.24F
SMYRNA         SUNNY     75  48  38 VRB5      30.26F
COOKEVILLE     SUNNY     75  50  41 CALM      30.25F
GALLATIN       SUNNY     73  45  35 SE5       30.28F
CROSSVILLE     SUNNY     72  46  39 E5        30.29F
$$

TNZ061-075-076-078-094-096-097-201900-
SOUTH MIDDLE TENNESSEE

CITY           SKY/WX    TMP DP  RH WIND       PRES   REMARKS
FAYETTEVILLE   SUNNY     73  45  35 CALM      30.25F
TULLAHOMA      SUNNY     73  41  31 NE6       30.26F
WINCHESTER     SUNNY     73  45  35 N3          N/A
COLUMBIA       SUNNY     75  45  33 VRB5      30.22F
SHELBYVILLE    SUNNY     73  48  40 CALM      30.24F
$$

TNZ017-018-042-046-047-201900-
NORTHEAST TENNESSEE

CITY           SKY/WX    TMP DP  RH WIND       PRES   REMARKS
TRI CITIES     SUNNY     72  46  39 N5        30.29F
ELIZABETHTON   SUNNY     73  45  35 NW6       30.28F
$$

TNZ012-013-036-069-073-074-201900-
CENTRAL EAST TENNESSEE

CITY           SKY/WX    TMP DP  RH WIND       PRES   REMARKS
KNOXVILLE      MOSUNNY   72  51  47 NE8       30.25F
OAK RIDGE      SUNNY     72  54  53 VRB3      30.28F
DOWNTOWN KNOXV SUNNY     73  52  46 CALM      30.26F
GATLINBURG     SUNNY     72  46  40 N6        30.26F
MORRISTOWN     SUNNY     72  46  40 CALM      30.27F
JACKSBORO      SUNNY     72  52  49 CALM      30.31F
$$

TNZ083-085-099-201900-
SOUTHEAST TENNESSEE

CITY           SKY/WX    TMP DP  RH WIND       PRES   REMARKS
CHATTANOOGA    MOSUNNY   72  49  44 N6        30.26F
DAYTON         CLEAR     72  54  53 VRB3      30.26F
$$

SKY/WX REPORTED AS FAIR MEANS FEW OR NO CLOUDS BELOW
12 THOUSAND FEET.





USA.gov is the U.S. government's official web portal to all federal, state and local government web resources and services.